Regional Weather Roundup
Issued by NWS Boston, MA

Home | Current Version | Previous Version | Text Only | Print | Product List | Glossary On
Versions: 1 2 3 4 5 6 7 8 9 10 11 12 13 14 15 16 17 18 19 20 21 22 23 24 25 26 27 28 29 30 31 32 33 34 35 36 37 38 39 40 41 42 43 44 45 46 47 48 49 50
000
ASUS41 KBOX 301410
RWRBOX

REGIONAL WEATHER ROUNDUP
NATIONAL WEATHER SERVICE TAUNTON MA
1000 AM EDT SAT JUL 30 2016

NOTE:  "FAIR" INDICATES FEW OR NO CLOUDS BELOW 12,000 FEET WITH NO
SIGNIFICANT WEATHER AND/OR OBSTRUCTIONS TO VISIBILITY.

MAZALL-301500-
EASTERN MASSACHUSETTS

CITY           SKY/WX    TMP DP  RH WIND       PRES   REMARKS
BOSTON         MOSUNNY   79  59  50 NE7       30.02R
BEVERLY        MOSUNNY   80  59  48 N6        30.01S
LAWRENCE       SUNNY     80  54  40 N8        30.04S
BEDFORD        SUNNY     81  52  36 N8        30.02R
BLUE HILL        N/A     78  56  46 VRB7G18   30.03S
NORWOOD        SUNNY     81  60  48 NE8       30.01S
MARSHFIELD     SUNNY     75  64  69 VRB7      30.02R
PLYMOUTH       SUNNY     77  58  51 NE9       30.03R
TAUNTON        SUNNY     79  62  56 N7        30.01R
NEW BEDFORD    SUNNY     80  65  59 VRB5      30.01R
$$

MAZALL-301500-
CAPE COD AND THE ISLANDS

CITY           SKY/WX    TMP DP  RH WIND       PRES   REMARKS
FALMOUTH       NOT AVBL
HYANNIS          N/A    N/A N/A N/A MISG      30.01R
CHATHAM        SUNNY     77  68  73 NE7       30.02R
PROVINCETOWN   SUNNY     74  66  76 N9        30.02R
NANTUCKET      MOSUNNY   76  69  79 N7        30.01R
MARTHAS VNYRD  MOSUNNY   79  68  69 N6        30.01R
$$

MAZALL-301500-
CENTRAL AND WESTERN MASSACHUSETTS

CITY           SKY/WX    TMP DP  RH WIND       PRES   REMARKS
WORCESTER      SUNNY     73  54  51 NE8       30.07R
FITCHBURG      PTSUNNY   77  57  50 VRB3      30.05S
ORANGE         PTSUNNY   74  57  55 N9        30.05S
SPRINGFIELD    PTSUNNY   76  59  56 N6        30.03S
WESTFIELD      MOSUNNY   77  59  53 NE7       30.04S
NORTH ADAMS    MOSUNNY   72  59  63 CALM      30.06S
PITTSFIELD     CLOUDY    73  57  57 CALM      30.06S
$$

RIZALL-301500-
RHODE ISLAND

CITY           SKY/WX    TMP DP  RH WIND       PRES   REMARKS
PROVIDENCE     PTSUNNY   80  61  52 NE7       30.02S
NEWPORT        SUNNY     78  67  68 NW8       30.02R
BLOCK ISLAND   SUNNY     75  70  84 NE8       30.03R
SMITHFIELD     SUNNY     79  59  50 NE9       30.04R
WESTERLY       SUNNY     81  65  58 VRB3      30.02R
$$

CTZALL-301500-
CONNECTICUT

CITY           SKY/WX    TMP DP  RH WIND       PRES   REMARKS
BRADLEY INTL   PTSUNNY   78  59  51 N8        30.04S
HARTFORD       SUNNY     80  63  55 N6        30.02F
BRIDGEPORT     CLOUDY    78  65  63 E6        30.01S
DANBURY        CLOUDY    74  62  66 NE6       30.04F
GROTON         SUNNY     78  69  73 S7        30.01R
NEW HAVEN      MOSUNNY   79  66  64 NE7       30.02R
CHESTER        FAIR      77  66  69 NE6       30.03S
MERIDEN        SUNNY     81  61  50 N8        30.02F
WILLIMANTIC    SUNNY     79  63  57 VRB6      30.04R
OXFORD         MOSUNNY   75  61  60 E7        30.06S
$$

MEZ002-015-021-024-NHZ003-005-008-011-012-014-VTZ005-008-301500-
NORTHERN NEW ENGLAND

CITY           SKY/WX    TMP DP  RH WIND       PRES   REMARKS
PORTLAND ME    CLOUDY    78  53  41 N10       30.02S
BANGOR ME      PTSUNNY   78  59  51 N9        30.01S
CONCORD NH     MOSUNNY   76  55  48 NW8       30.04S
MANCHESTER NH  PTSUNNY   78  50  37 NW12G17   30.02S
NASHUA NH      MOSUNNY   77  54  44 VRB3      30.04S
PORTSMOUTH NH  PTSUNNY   76  59  55 VRB2      30.01S
JAFFREY NH     MOSUNNY   74  54  49 VRB6      30.07S
KEENE NH       CLOUDY    73  59  61 VRB6      30.06S
BURLINGTON VT  FAIR      71  55  56 NW3       30.08S
MT. WASHINGTON MOSUNNY   46  37  71 N7          N/A
$$

NYZ052-076-301500-
EASTERN NEW YORK

CITY           SKY/WX    TMP DP  RH WIND       PRES   REMARKS
ALBANY         PTSUNNY   73  61  65 N5        30.06S
NEW YORK CITY  PTSUNNY   78  69  73 NE12      30.00F
$$

ANZALL-301500-
MARINE OBSERVATIONS

STATION/POSITION TIME  TEMP    WIND        PRES    VSBY  WAVE
                       AIR SEA DIR/SP/G                  HT/PER
                 (UTC) (F)     (DEG/KT/KT) (MB)    (MI)  (FT/S)
BOSTON BUOY      1350   71 71   20/ 12/ 14 1016.1R         1/13
BUZZARDS BAY     1300   71      30/  3/  4 1016.4R
NANTUCKET SOUND  1350   72 75  350/  6/  8 1015.8R         1/ 7
MASS BAY-STELLWA 1304   70 69  360/ 10/ 12 1016.0R  1 7/8  1/ 7
ISLE OF SHOALS   1300   70      10/  7/  8 1016.4R
S OF BLOCK IS    1325      72                N/A           2/ 7
$$

......................KEY.........................
  SKY/WX - SKY CONDITION/PRESENT WEATHER
  TMP    - TEMPERATURE IN FAHRENHEIT
  DWPT   - DEWPOINT IN FAHRENHEIT
  RH     - RELATIVE HUMIDITY IN PERCENT
  WIND   - DIRECTION AND SPEED IN MPH
  PRES   - MEAN SEA LEVEL PRESSURE IN INCHES OF HG
  WCI    - WIND CHILL INDEX
  VSB    - VISIBILITY IN MILES
  HX     - HEAT INDEX
  TC     - TEMPERATURE IN CELSIUS
  VRB    - VARIABLE WIND DIRECTION
  N/A    - NOT AVAILABLE



USA.gov is the U.S. government's official web portal to all federal, state and local government web resources and services.